When you browse on this site, cookies collect data to enhance your experience and personalize the content and advertising you see.
Visit our Privacy Policy to learn more. By continuing to use the site, you agree to this use of cookies and data.
  • In Slovakia
  • List of Countries
  • For 7 days
  • Water Temperature
  • Satellite Maps
  • Weather Map
  • Weather Widgets
  • user-avatar
    Login

    Hourly Weather Serowe

    Today, 12 December, Wednesday

    Time Temperature Precipitation Wind Pressure Humidity
    00:00 +20°C° 0 mm 4 mps 668 mmHg 66%
    01:00 +19°C° 0 mm 4 mps 667 mmHg 68%
    02:00 +19°C° 0 mm 4 mps 667 mmHg 69%
    03:00 +18°C° 0 mm 4 mps 667 mmHg 71%
    04:00 +18°C° 0 mm 4 mps 667 mmHg 73%
    05:00 +18°C° 0 mm 4 mps 667 mmHg 74%
    06:00 +19°C° 0 mm 4 mps 667 mmHg 67%
    07:00 +21°C° 0 mm 4 mps 668 mmHg 61%
    08:00 +22°C° 0 mm 5 mps 669 mmHg 52%
    09:00 +26°C° 0 mm 5 mps 669 mmHg 44%
    10:00 +28°C° 0 mm 4 mps 669 mmHg 36%
    11:00 +30°C° 0 mm 4 mps 670 mmHg 28%
    12:00 +32°C° 0 mm 4 mps 669 mmHg 25%
    13:00 +34°C° 0 mm 3 mps 669 mmHg 22%
    14:00 +35°C° 0 mm 3 mps 669 mmHg 18%
    15:00 +35°C° 0 mm 3 mps 668 mmHg 18%
    16:00 +35°C° 0 mm 3 mps 668 mmHg 18%
    17:00 +35°C° 0 mm 3 mps 667 mmHg 17%
    18:00 +33°C° 0 mm 3 mps 667 mmHg 21%
    19:00 +30°C° 0 mm 3 mps 667 mmHg 25%
    20:00 +28°C° 0 mm 3 mps 667 mmHg 29%
    21:00 +27°C° 0 mm 3 mps 667 mmHg 31%
    22:00 +26°C° 0 mm 3 mps 667 mmHg 33%
    23:00 +25°C° 0 mm 3 mps 667 mmHg 35%

    Tomorrow, 13 December, Thursday

    Time Temperature Precipitation Wind Pressure Humidity
    00:00 +25°C° 0 mm 3 mps 667 mmHg 35%
    01:00 +25°C° 0 mm 3 mps 667 mmHg 34%
    02:00 +24°C° 0 mm 3 mps 666 mmHg 34%
    03:00 +24°C° 0 mm 3 mps 666 mmHg 35%
    04:00 +22°C° 0 mm 3 mps 666 mmHg 35%
    05:00 +23°C° 0 mm 2 mps 666 mmHg 35%
    06:00 +25°C° 0 mm 2 mps 667 mmHg 31%
    07:00 +27°C° 0 mm 2 mps 668 mmHg 27%
    08:00 +30°C° 0 mm 2 mps 669 mmHg 23%
    09:00 +32°C° 0 mm 2 mps 670 mmHg 21%
    10:00 +35°C° 0 mm 2 mps 670 mmHg 19%
    11:00 +37°C° 0 mm 2 mps 671 mmHg 17%
    12:00 +37°C° 0 mm 2 mps 670 mmHg 16%
    13:00 +38°C° 0 mm 3 mps 670 mmHg 15%
    14:00 +39°C° 0 mm 3 mps 669 mmHg 14%
    15:00 +40°C° 0 mm 4 mps 669 mmHg 14%
    16:00 +38°C° 0 mm 4 mps 668 mmHg 15%
    17:00 +39°C° 0 mm 5 mps 668 mmHg 15%
    18:00 +36°C° 0 mm 5 mps 668 mmHg 19%
    19:00 +34°C° 0 mm 5 mps 668 mmHg 22%
    20:00 +33°C° 0 mm 4 mps 668 mmHg 25%
    21:00 +32°C° 0 mm 4 mps 668 mmHg 27%
    22:00 +30°C° 0 mm 4 mps 669 mmHg 28%
    23:00 +29°C° 0 mm 4 mps 669 mmHg 30%

    Day after tomorrow, 14 December, Friday

    Time Temperature Precipitation Wind Pressure Humidity
    00:00 +28°C° 0 mm 5 mps 668 mmHg 33%
    01:00 +28°C° 0 mm 5 mps 668 mmHg 35%
    02:00 +27°C° 0 mm 6 mps 668 mmHg 38%
    03:00 +26°C° 0 mm 6 mps 668 mmHg 40%
    04:00 +24°C° 0 mm 6 mps 668 mmHg 43%
    05:00 +24°C° 0 mm 6 mps 668 mmHg 45%
    06:00 +26°C° 0 mm 6 mps 669 mmHg 45%
    07:00 +26°C° 0 mm 6 mps 669 mmHg 45%
    08:00 +27°C° 0 mm 7 mps 670 mmHg 44%
    09:00 +29°C° 0 mm 6 mps 671 mmHg 40%
    10:00 +32°C° 0 mm 6 mps 671 mmHg 36%
    11:00 +34°C° 0 mm 6 mps 671 mmHg 32%
    12:00 +35°C° 0 mm 6 mps 671 mmHg 29%
    13:00 +36°C° 0 mm 6 mps 670 mmHg 25%
    14:00 +38°C° 0 mm 6 mps 670 mmHg 22%
    15:00 +38°C° 0 mm 6 mps 669 mmHg 22%
    16:00 +36°C° 0 mm 6 mps 669 mmHg 22%
    17:00 +36°C° 0 mm 7 mps 668 mmHg 22%
    18:00 +34°C° 0 mm 6 mps 668 mmHg 26%
    19:00 +32°C° 0 mm 5 mps 669 mmHg 30%
    20:00 +29°C° 0 mm 4 mps 669 mmHg 34%
    21:00 +28°C° 0 mm 5 mps 669 mmHg 39%
    22:00 +27°C° 0 mm 6 mps 669 mmHg 44%
    23:00 +26°C° 0 mm 6 mps 669 mmHg 49%

    15 December, Saturday

    Time Temperature Precipitation Wind Pressure Humidity
    00:00 +24°C° 0 mm 6 mps 669 mmHg 52%
    01:00 +25°C° 0 mm 5 mps 669 mmHg 55%
    02:00 +23°C° 0 mm 5 mps 668 mmHg 57%
    03:00 +22°C° 0 mm 5 mps 669 mmHg 59%
    04:00 +22°C° 0 mm 5 mps 669 mmHg 61%
    05:00 +22°C° 0 mm 5 mps 669 mmHg 63%
    06:00 +23°C° 0 mm 6 mps 670 mmHg 60%
    07:00 +23°C° 0 mm 6 mps 670 mmHg 58%
    08:00 +24°C° 0 mm 7 mps 671 mmHg 55%
    09:00 +28°C° 0 mm 6 mps 671 mmHg 46%
    10:00 +30°C° 0 mm 6 mps 671 mmHg 38%
    11:00 +33°C° 0 mm 6 mps 671 mmHg 30%
    12:00 +35°C° 0 mm 5 mps 670 mmHg 26%
    13:00 +36°C° 0 mm 5 mps 670 mmHg 22%
    14:00 +37°C° 0 mm 5 mps 669 mmHg 18%
    15:00 +37°C° 0 mm 5 mps 669 mmHg 18%
    16:00 +37°C° 0 mm 5 mps 668 mmHg 18%
    17:00 +36°C° 0 mm 5 mps 668 mmHg 18%
    18:00 +34°C° 0 mm 5 mps 668 mmHg 21%
    19:00 +32°C° 0 mm 4 mps 668 mmHg 25%
    20:00 +30°C° 0 mm 3 mps 668 mmHg 29%
    21:00 +29°C° 0 mm 3 mps 668 mmHg 30%
    22:00 +28°C° 0 mm 3 mps 668 mmHg 32%
    23:00 +27°C° 0 mm 3 mps 668 mmHg 33%

    16 December, Sunday

    Time Temperature Precipitation Wind Pressure Humidity
    00:00 +27°C° 0 mm 4 mps 668 mmHg 36%
    01:00 +26°C° 0 mm 4 mps 668 mmHg 39%
    02:00 +25°C° 0 mm 4 mps 668 mmHg 41%
    03:00 +25°C° 0 mm 4 mps 668 mmHg 43%
    04:00 +23°C° 0 mm 4 mps 668 mmHg 45%
    05:00 +24°C° 0 mm 3 mps 668 mmHg 48%
    06:00 +25°C° 0 mm 4 mps 669 mmHg 45%
    07:00 +26°C° 0 mm 5 mps 670 mmHg 42%
    08:00 +28°C° 0 mm 7 mps 670 mmHg 40%
    09:00 +30°C° 0 mm 7 mps 670 mmHg 36%
    10:00 +33°C° 0 mm 7 mps 670 mmHg 32%
    11:00 +34°C° 0 mm 7 mps 670 mmHg 28%
    12:00 +35°C° 0 mm 7 mps 670 mmHg 25%
    13:00 +38°C° 0 mm 6 mps 669 mmHg 21%
    14:00 +39°C° 0 mm 6 mps 668 mmHg 18%
    15:00 +38°C° 0 mm 6 mps 668 mmHg 18%
    16:00 +38°C° 0 mm 6 mps 668 mmHg 18%
    17:00 +36°C° 0 mm 6 mps 667 mmHg 18%
    18:00 +34°C° 0 mm 6 mps 667 mmHg 21%
    19:00 +33°C° 0 mm 5 mps 667 mmHg 25%
    20:00 +30°C° 0 mm 4 mps 668 mmHg 28%
    21:00 +29°C° 0 mm 4 mps 668 mmHg 30%
    22:00 +28°C° 0 mm 4 mps 668 mmHg 33%
    23:00 +28°C° 0 mm 4 mps 668 mmHg 35%

    17 December, Monday

    Time Temperature Precipitation Wind Pressure Humidity
    00:00 +27°C° 0 mm 4 mps 668 mmHg 37%
    01:00 +26°C° 0 mm 4 mps 668 mmHg 39%
    02:00 +26°C° 0 mm 4 mps 667 mmHg 41%
    03:00 +25°C° 0 mm 4 mps 667 mmHg 42%
    04:00 +25°C° 0 mm 4 mps 668 mmHg 43%
    05:00 +23°C° 0 mm 4 mps 668 mmHg 45%
    06:00 +26°C° 0 mm 5 mps 668 mmHg 41%
    07:00 +27°C° 0 mm 6 mps 669 mmHg 38%
    08:00 +29°C° 0 mm 6 mps 670 mmHg 35%
    09:00 +32°C° 0 mm 6 mps 670 mmHg 30%
    10:00 +34°C° 0 mm 6 mps 670 mmHg 25%
    11:00 +36°C° 0 mm 5 mps 670 mmHg 20%
    12:00 +37°C° 0 mm 5 mps 669 mmHg 18%
    13:00 +39°C° 0 mm 6 mps 669 mmHg 15%
    14:00 +40°C° 0 mm 6 mps 668 mmHg 13%
    15:00 +39°C° 0 mm 6 mps 668 mmHg 14%
    16:00 +39°C° 0 mm 6 mps 667 mmHg 15%
    17:00 +38°C° 0 mm 6 mps 667 mmHg 15%
    18:00 +35°C° 0 mm 5 mps 667 mmHg 18%
    19:00 +33°C° 0 mm 5 mps 667 mmHg 21%
    20:00 +32°C° 0 mm 4 mps 667 mmHg 24%
    21:00 +30°C° 0 mm 4 mps 667 mmHg 26%
    22:00 +29°C° 0 mm 3 mps 667 mmHg 28%
    23:00 +28°C° 0 mm 3 mps 667 mmHg 29%
    Show more